Location: Unspecified
(51.0950°N, 12.9690°E)
Time: 17:22:31
(UTC+00:00)

FALCON 9 DEB - Pass Details

Date: 28 October 2021
Orbit: 337 x 351 km, 53.0° (Epoch: 02 December)

Event Time Altitude Azimuth Distance (km) Brightness Sun altitude
Rises 17:41:37 0° 238° (WSW) 2,174 7.6 -18.1°
Reaches altitude 10° 17:43:38 10° 234° (SW) 1,338 6.3 -18.5°
Enters shadow 17:46:15 52° 186° (S) 457 3.2 -18.9°
